Location: Passau
(48.5830°N, 13.4830°E)
Time: 15:06:12
(UTC+02:00)

Courier 1B - Visible Passes

Search period start: 02 August 2021 00:00
Search period end: 12 August 2021 00:00
Orbit: 962 x 1209 km, 28.3° (Epoch: 01 August)

Date Brightness Start Highest point End Pass type
(mag) Time Alt. Az. Time Alt. Az. Time Alt. Az.
02 Aug 9.5 21:46:21 10° SW 21:50:31 15° S 21:54:18 11° SSE visible
03 Aug 9.6 22:46:53 10° SW 22:49:42 12° SSW 22:50:32 12° S visible
04 Aug 9.6 21:52:30 10° SW 21:56:11 14° S 21:59:50 10° SSE visible
06 Aug 9.7 21:59:40 10° SW 22:01:48 11° SSW 22:03:56 10° S visible
07 Aug 9.7 21:04:57 10° SW 21:08:17 13° SSW 21:11:36 10° SSE visible
